Location: Zagreb
(45.8000°N, 16.0000°E)
Time: 15:05:41
(UTC+02:00)

Altair - Pass Details

Date: 16 July 2024
Orbit: 1502 x 1682 km, 47.2° (Epoch: 17 July)

Event Time Altitude Azimuth Distance (km) Brightness Sun altitude
Rises 03:45:29 0° 290° (WNW) 4,644 9.8 -13.4°
Reaches altitude 10° 03:49:14 10° 278° (W) 3,671 9.2 -12.9°
Maximum altitude 03:56:02 24° 229° (SW) 2,773 8.3 -12.2°
Drops below altitude 10° 04:02:58 10° 181° (S) 3,738 9.1 -11.4°
Sets 04:06:51 0° 168° (SSE) 4,748 9.7 -10.9°
